星链-1154 (STARLINK-1154 )

导读

STARLINK-1154是美国太空探索技术公司SpaceX星链星座中的卫星,于2020年2月17日发射升空,属于星链互联网星座组网卫星,旨在为全球提供高速低延迟的宽带互联网服务。星链项目通过大规模低轨卫星组网,覆盖偏远地区,弥补地面网络覆盖不足,该卫星是星链早期组网批次的成员之一,支撑星座初期服务能力搭建。

基本信息
目录编号:
45198
目录名称:
STARLINK-1154
国际标识:
2020-012W
轨道中心:
EARTH
卫星名称:
星链-1154
卫星全名:
星链-1154 (STARLINK-1154 )
卫星状态:
在轨 (已飞行2308 天)
发射日期:
2020-02-17 UTC
国别 :
美国 (US)
星等 :
--
轨道信息
数据来源 国际轨道数据
星历时间: 2026-06-11T22:53:57+0800
1天前
查看轨道信息
半长轴: 6753.997km
偏心率: 0.0002488
轨道倾角: 53.042°
近地点辐角 0.377°
升交点赤经 276.199°
平近点角 359.725°
近地点: 374.179km
远地点: 377.541km
周期: 92.066分钟
每日圈数: 15.640892
详细信息
固有亮度:
5
最大亮度:
2.5
卫星平台:
Starlink V1.0
覆盖范围:
全球
运营商:
太空探索技术公司
运营商所在国:
美国
制造商(研发单位):
太空探索技术公司
制造商所在国:
美国
使用方式:
暂无
卫星简介
星链(Starlink)计划是由太空探索技术公司(SpaceX)提出的一个巨型低轨卫星互联网星座项目,计划在2019年至2024年间在太空搭建由约1.2万颗卫星组成的“星链”网络,其中1584颗将部署在地球上空550千米处的近地轨道,并从2020年开始工作。该卫星仍在工作。
2D轨道图
3D轨道图
轨道高度分析图
轨道倾角分析图
轨道综合分析图
查看轨道综合分析图